Brigham City, UT

2:10 PM MST on December 08, 2019 (GMT -0700)
Brigham City

Weather History for KBMC - November, 2019

Change the Weather History Date:

Thursday, November 14, 2019

  Actual Average (KLGU) Record (KLGU)
Temperature  
Mean Temperature 44 °F -  
Max Temperature 60 °F 47 °F 65 °F (1963)
Min Temperature 28 °F 25 °F 7 °F (1959)
Degree Days  
Heating Degree Days 21    
Moisture  
Dew Point 28 °F    
Average Humidity 63    
Maximum Humidity 82    
Minimum Humidity 28    
Precipitation  
Precipitation 0.00 in - - ()
Sea Level Pressure  
Sea Level Pressure 30.20 in    
Wind  
Wind Speed 1 mph ()    
Max Wind Speed 7 mph    
Max Gust Speed -    
Visibility 10.0 miles    
Events      
Averages and records for this station are not official NWS values.
T = Trace of Precipitation, MM = Missing Value Source: Averaged Metar Reports

Daily Weather History Graph

Daily Weather History Graph

Search for Another Location

Airport or City:

Astronomy

Nov. 14, 2019 Rise Set
Actual Time 7:15 AM MST 5:09 PM MST
Civil Twilight 6:45 AM MST 5:38 PM MST
Nautical Twilight 6:12 AM MST 6:12 PM MST
Astronomical Twilight 5:39 AM MST 6:45 PM MST
Moon 6:56 PM MST (11/14) 9:15 AM MST (11/14)
Length of Visible Light 10h 52m
Length of Day
9h 53m
Waning Gibbous, 95% of the Moon is Illuminated
Nov 14
Waning Gibbous
Nov 19
Last Quarter
Nov 26
New
Dec 3
First Quarter
Dec 11
Full

Hourly Weather History & Observations

Time (MST) Temp. Windchill Dew Point Humidity Pressure Visibility Wind Dir Wind Speed Gust Speed Precip Events Conditions
12:10 AM 34.9 °F - 26.2 °F 71% 30.19 in 10.0 mi Calm Calm - N/A   Clear
12:30 AM 32.9 °F - 25.5 °F 74% 30.19 in 10.0 mi Calm Calm - N/A   Clear
12:50 AM 32.5 °F 29.3 °F 25.9 °F 76% 30.19 in 10.0 mi NNW 3.5 mph - N/A   Clear
1:10 AM 33.1 °F 30.0 °F 25.9 °F 75% 30.20 in 10.0 mi NNW 3.5 mph - N/A   Clear
1:30 AM 31.8 °F - 24.8 °F 75% 30.20 in 10.0 mi Calm Calm - N/A   Clear
1:50 AM 32.0 °F - 25.7 °F 78% 30.21 in 10.0 mi Calm Calm - N/A   Clear
2:10 AM 31.5 °F - 24.8 °F 76% 30.21 in 10.0 mi Calm Calm - N/A   Clear
2:30 AM 30.7 °F - 24.8 °F 79% 30.21 in 10.0 mi Calm Calm - N/A   Clear
2:50 AM 31.6 °F 28.3 °F 25.9 °F 79% 30.21 in 10.0 mi West 3.5 mph - N/A   Clear
3:10 AM 32.2 °F - 25.5 °F 76% 30.21 in 10.0 mi Calm Calm - N/A   Clear
3:30 AM 30.9 °F - 24.6 °F 77% 30.21 in 10.0 mi Calm Calm - N/A   Clear
3:50 AM 32.0 °F - 25.3 °F 76% 30.21 in 10.0 mi Calm Calm - N/A   Clear
4:10 AM 30.7 °F - 25.0 °F 79% 30.21 in 10.0 mi Calm Calm - N/A   Clear
4:50 AM 30.6 °F - 24.4 °F 78% 30.21 in 10.0 mi Calm Calm - N/A   Clear
5:10 AM 29.5 °F - 24.3 °F 81% 30.21 in 10.0 mi Calm Calm - N/A   Clear
5:30 AM 30.7 °F - 25.2 °F 80% 30.22 in 10.0 mi Calm Calm - N/A   Clear
5:50 AM 30.4 °F - 24.6 °F 79% 30.22 in 10.0 mi Calm Calm - N/A   Clear
6:10 AM 30.2 °F - 24.4 °F 79% 30.22 in 10.0 mi Calm Calm - N/A   Clear
6:30 AM 30.6 °F - 24.6 °F 79% 30.22 in 10.0 mi Calm Calm - N/A   Clear
6:50 AM 28.9 °F - 23.2 °F 79% 30.23 in 10.0 mi Calm Calm - N/A   Clear
7:10 AM 28.6 °F - 23.5 °F 81% 30.23 in 10.0 mi Calm Calm - N/A   Clear
7:30 AM 30.0 °F - 25.2 °F 82% 30.23 in 10.0 mi Calm Calm - N/A   Clear
7:50 AM 30.7 °F 27.3 °F 25.0 °F 79% 30.24 in 10.0 mi North 3.5 mph - N/A   Clear
8:10 AM 31.3 °F - 25.7 °F 80% 30.25 in 10.0 mi Calm Calm - N/A   Clear
8:30 AM 32.5 °F - 26.4 °F 78% 30.24 in 10.0 mi Calm Calm - N/A   Clear
8:50 AM 34.3 °F - 28.0 °F 78% 30.25 in 10.0 mi Calm Calm - N/A   Clear
9:10 AM 36.5 °F - 29.3 °F 75% 30.26 in 10.0 mi Calm Calm - N/A   Clear
9:30 AM 38.3 °F - 30.2 °F 73% 30.25 in 10.0 mi Calm Calm - N/A   Clear
9:50 AM 40.8 °F - 31.3 °F 69% 30.25 in 10.0 mi Calm Calm - N/A   Clear
10:10 AM 44.2 °F - 31.5 °F 61% 30.25 in 10.0 mi Calm Calm - N/A   Clear
10:30 AM 46.2 °F - 31.6 °F 57% 30.26 in 10.0 mi Calm Calm - N/A   Clear
10:50 AM 48.2 °F - 31.3 °F 52% 30.26 in 10.0 mi Calm Calm - N/A   Clear
11:10 AM 49.3 °F - 30.9 °F 49% 30.25 in 10.0 mi Calm Calm - N/A   Clear
11:30 AM 50.4 °F - 30.4 °F 46% 30.24 in 10.0 mi Calm Calm - N/A   Clear
11:50 AM 51.8 °F - 29.5 °F 42% 30.23 in 10.0 mi Calm Calm - N/A   Clear
12:10 PM 52.7 °F - 29.1 °F 40% 30.23 in 10.0 mi Calm Calm - N/A   Clear
12:30 PM 53.6 °F - 29.3 °F 39% 30.22 in 10.0 mi Calm Calm - N/A   Clear
12:50 PM 54.0 °F - 29.8 °F 40% 30.21 in 10.0 mi Calm Calm - N/A   Clear
1:10 PM 55.2 °F - 30.6 °F 39% 30.21 in 10.0 mi Calm Calm - N/A   Clear
1:30 PM 55.8 °F - 30.0 °F 37% 30.19 in 10.0 mi Calm Calm - N/A   Clear
1:50 PM 56.3 °F - 29.3 °F 36% 30.19 in 10.0 mi Calm Calm - N/A   Clear
2:10 PM 57.6 °F - 28.9 °F 34% 30.18 in 10.0 mi Calm Calm - N/A   Clear
2:30 PM 59.0 °F - 28.2 °F 31% 30.18 in 10.0 mi Calm Calm - N/A   Clear
2:50 PM 59.5 °F - 27.9 °F 30% 30.18 in 10.0 mi Calm Calm - N/A   Clear
3:10 PM 60.1 °F - 27.1 °F 29% 30.17 in 7.0 mi Calm Calm - N/A   Clear
3:30 PM 59.5 °F - 26.4 °F 28% 30.17 in 10.0 mi Calm Calm - N/A   Clear
3:50 PM 58.6 °F - 26.4 °F 29% 30.17 in 10.0 mi West 3.5 mph - N/A   Clear
4:10 PM 57.2 °F - 28.8 °F 34% 30.16 in 10.0 mi West 3.5 mph - N/A   Clear
4:50 PM 54.3 °F - 29.7 °F 39% 30.16 in 10.0 mi Calm Calm - N/A   Clear
5:10 PM 52.7 °F - 30.6 °F 43% 30.16 in 10.0 mi Calm Calm - N/A   Clear
5:30 PM 51.1 °F - 32.0 °F 48% 30.16 in 10.0 mi Calm Calm - N/A   Clear
5:50 PM 49.6 °F - 32.0 °F 51% 30.16 in 10.0 mi Calm Calm - N/A   Clear
6:10 PM 48.4 °F - 32.0 °F 53% 30.16 in 10.0 mi Calm Calm - N/A   Clear
6:30 PM 48.0 °F - 32.0 °F 54% 30.16 in 10.0 mi WNW 3.5 mph - N/A   Clear
6:50 PM 48.9 °F - 30.7 °F 50% 30.16 in 10.0 mi Calm Calm - N/A   Clear
7:10 PM 45.1 °F - 31.3 °F 58% 30.17 in 10.0 mi Calm Calm - N/A   Clear
7:30 PM 45.3 °F - 31.1 °F 58% 30.16 in 10.0 mi Calm Calm - N/A   Clear
8:10 PM 42.8 °F - 30.7 °F 62% 30.16 in 10.0 mi Calm Calm - N/A   Clear
8:30 PM 40.8 °F - 30.9 °F 68% 30.16 in 10.0 mi Calm Calm - N/A   Clear
8:50 PM 39.6 °F - 30.9 °F 71% 30.16 in 10.0 mi Calm Calm - N/A   Clear
9:10 PM 39.7 °F - 31.1 °F 71% 30.16 in 10.0 mi Calm Calm - N/A   Clear
9:30 PM 39.4 °F - 30.6 °F 71% 30.16 in 10.0 mi Calm Calm - N/A   Clear
9:50 PM 38.3 °F - 30.4 °F 73% 30.15 in 10.0 mi Calm Calm - N/A   Clear
10:10 PM 37.2 °F - 31.1 °F 79% 30.14 in 10.0 mi Calm Calm - N/A   Clear
10:30 PM 37.8 °F 32.5 °F 30.0 °F 74% 30.15 in 10.0 mi NNW 6.9 mph - N/A   Clear
10:50 PM 37.0 °F - 28.9 °F 73% 30.16 in 10.0 mi Calm Calm - N/A   Clear
11:10 PM 35.6 °F - 28.2 °F 75% 30.16 in 10.0 mi Calm Calm - N/A   Clear
11:30 PM 35.4 °F 31.5 °F 28.8 °F 77% 30.16 in 10.0 mi SW 4.6 mph - N/A   Clear
11:50 PM 37.8 °F 34.2 °F 28.9 °F 71% 30.16 in 10.0 mi West 4.6 mph - N/A   Clear